Flag for Cameroon Weather past 2 weeks in Bamenda, Cameroon

Now
75 °F

Passing clouds.


Feels Like: 74 °F
Forecast: 64 / 77 °F
Wind: No wind

Location: Douala Obs.

Current Time: Aug 4, 2015 at 11:01:01 PM

Latest Report: Aug 4, 2015 at 10:00 PM


Visibility: N/A

Pressure: 29.92 "Hg (25.94 "Hg at 1240m altitude)

Humidity: 94%

Dew point: 73 °F

Location of BamendaLocation

Historic Weather in Bamenda — Graph

°F

Bamenda temperature yesterday

Maximum temperature yesterday: 82 °F (at 4:00 PM)
Minimum temperature yesterday: 73 °F (at 2:00 AM)
Average temperature yesterday: 78 °F

Past Weeks' High & Low Weather Summary

 TemperatureHumidityPressure
High84 °F (Jul 25, 2:00 PM)100% (Jul 21, 3:00 AM)30.01 "Hg (Jul 21, 3:00 AM)
Low73 °F (Jul 21, 3:00 AM)70% (Jul 28, 12:00 PM)29.86 "Hg (Jul 25, 5:00 PM)
Average77 °F92%29.94 "Hg
* Reported Jul 20 10:00 PM — Aug 4 10:00 PM, Bamenda, Weather by CustomWeather, © 2015

Note: Actual official high and low records may vary slightly from our data, if they occured in-between our weather recording intervals... More about our weather records

Advertising

Bamenda weather history for previous 24 hours

 ConditionsComfort  
Time TempWeatherWind HumidityBarometerVisibility
10:00 PM
Tue, Aug 4
75 °FPassing clouds.No wind94%29.92 "HgN/A
9:00 PM77 °FPassing clouds.2 mph94%29.92 "HgN/A
8:00 PM75 °FPartly cloudy.5 mph94%29.89 "HgN/A
7:00 PM77 °FPartly cloudy.7 mph89%29.86 "HgN/A
6:00 PM77 °FBroken clouds.7 mph94%29.86 "HgN/A
5:00 PM79 °FBroken clouds.14 mph89%29.86 "HgN/A
4:00 PM81 °FBroken clouds.5 mph84%29.86 "HgN/A
3:00 PM79 °FDrizzle. Broken clouds.7 mph84%29.92 "HgN/A
2:00 PM77 °FThunderstorms. Mostly cloudy.3 mph100%29.92 "Hg1 mi
1:00 PM77 °FDrizzle. Cloudy.14 mph100%29.95 "Hg2 mi
12:00 PM81 °FThunderstorms. Cloudy.12 mph89%29.95 "Hg1 mi
11:00 AM81 °FDrizzle. Broken clouds.9 mph89%29.95 "Hg5 mi
10:00 AM79 °FThunderstorms. More clouds than sun.7 mph89%29.95 "Hg1 mi
9:00 AM77 °FDrizzle. More clouds than sun.5 mph94%29.95 "Hg1 mi
8:00 AM77 °FDrizzle. More clouds than sun.5 mph94%29.95 "Hg1 mi
7:00 AM75 °FDrizzle. More clouds than sun.No wind100%29.95 "Hg1 mi
6:00 AM77 °FPassing clouds.3 mph94%29.92 "Hg4 mi
5:00 AM77 °FPassing clouds.5 mph94%29.92 "HgN/A
4:00 AM77 °FPassing clouds.3 mph94%29.92 "HgN/A
3:00 AM77 °FPartly cloudy.5 mph94%29.95 "Hg5 mi
2:00 AM77 °FDrizzle. Mostly cloudy.No wind94%29.95 "Hg2 mi
1:00 AM77 °FPartly cloudy.No wind94%29.95 "HgN/A
12:00 AM77 °FPassing clouds.No wind94%29.98 "HgN/A
11:00 PM
Mon, Aug 3
77 °FPassing clouds.No wind94%29.98 "HgN/A
Weather by CustomWeather, © 2015

See weather overviewHow to use our weather pages